Notices

Please take our survey and provide feedback: https://eccc.sondage-survey.ca/f/LanguageSelection.aspx?s=442ca660-fcf1-47c0-95a9-59707d6fd709

Please note that for the Engineering Climate Datasets, IDF dataset is available through this link.  Intensity-Duration-Frequency (IDF) Files: Includes the latest version of short-duration rainfall Intensity-Duration-Frequency (IDF) statistics in the form of tables and graphs with accompanying documentation for various locations across Canada.  Current IDF files can be accessed through our station finder application or downloaded for each province and territory across Canada.  In addition, historical versions of IDF files are also available for download.  Updates of IDF files are provided approximately every two years depending on the availability of data.   Thank you for your patience as we enhance our systems.

Hourly Data Report for March 01, 2012

HALIFAX STANFIELD INT'L A
NOVA SCOTIA

44°52'48.060" N
63°30'00.050" W
145.40 m
8202250
71395
YHZ

Download Data

Hourly Data (March 2012)
Hourly Data Report for March 1, 2012
TIME
LST
Temp Definition
°C
Dew Point Definition
°C
Rel Hum Definition
%
Precip. Amount Definition
mm

Wind Dir Definition
10's deg

Wind Spd Definition
km/h
Visibility Definition
km
Stn Press Definition
kPa
Hmdx Definition


Wind Chill Definition


Weather Definition


00:00 -9.2 -11.2 85   1 17 24.1 100.57   -16 Mainly Clear
01:00 -10.2 -12.1 86   6 9 24.1 100.56   -15 Clear
02:00 -11.5 -13.2 87   6 6 24.1 100.56   -15 Clear
03:00 -11.9 -13.6 87   7 6 24.1 100.54   -16 Clear
04:00 -11.7 -13.8 84   6 6 24.1 100.43   -15 Mainly Clear
05:00 -11.3 -13.8 82   6 9 24.1 100.50   -16 Mainly Clear
06:00 -11.3 -13.4 84   4 13 24.1 100.47   -18 Mostly Cloudy
07:00 -10.9 -13.2 83   7 11 24.1 100.45   -17 Mostly Cloudy
08:00 -11.1 -12.9 87   9 20 24.1 100.42   -19 Cloudy
09:00 -9.9 -12.4 82   8 24 24.1 100.35   -18 Cloudy
10:00 -8.9 -12.4 76   8 28 24.1 100.31   -18 Cloudy
11:00 -8.2 -12.7 70   9 30 24.1 100.24   -17 Cloudy
12:00 -7.8 -13.3 65   5 24 24.1 100.20   -16 Cloudy
13:00 -7.1 -13.1 62   9 24 24.1 100.13   -15 Cloudy
14:00 -6.4 -13.0 59   8 24 24.1 100.04   -14 Mostly Cloudy
15:00 -6.1 -12.6 60   8 26 24.1 100.00   -14 Cloudy
16:00 -6.0 -12.4 61   9 28 24.1 99.97   -14 Cloudy
17:00 -5.9 -11.9 63   5 19 24.1 99.97   -13 Cloudy
18:00 -6.1 -11.1 68   8 17 24.1 100.01   -12 Cloudy
19:00 -6.3 -11.4 67   7 15 24.1 100.07   -12 Cloudy
20:00 -6.9 -11.6 69   7 17 24.1 100.04   -13 Cloudy
21:00 -7.3 -11.2 74   6 19 24.1 100.03   -14 Cloudy
22:00 -7.5 -11.0 76   6 26 24.1 100.00   -16 Cloudy
23:00 -7.9 -11.1 78   6 28 24.1 99.98   -17 Cloudy

Notes on Data Quality.

Legend

  • E = Estimated
  • M = Missing
  • NA = Not Available*
  • [empty] = Indicates an unobserved value
Date modified: